START_TIME,STEP,MOV.,AL01,t_acc.,AL02,t_acc.,E37,t_acc.,H21,t_acc.
1979-07-07 00:00:34.950 ,0,0,9.,24.0,3.,24.0,0.,24.0,0.,24.0
1979-07-07 00:00:58.940 ,1,1,12.,24.0,1.,24.0,0.,24.0,0.,24.0
1979-07-07 00:01:22.940 ,1,0,9.,24.0,0.,24.0,0.,24.0,0.,24.0
1979-07-07 00:01:46.940 ,2,1,3.,24.0,1.,24.0,0.,24.0,0.,24.0
1979-07-07 00:02:10.940 ,2,0,3.,24.0,2.,24.0,0.,24.0,0.,24.0
1979-07-07 00:02:34.940 ,3,1,8.,24.0,1.,24.0,0.,24.0,0.,24.0
1979-07-07 00:02:58.940 ,3,0,7.,24.0,0.,24.0,0.,24.0,0.,24.0
1979-07-07 00:03:22.940 ,4,1,14.,24.0,0.,24.0,0.,24.0,0.,24.0
1979-07-07 00:03:46.940 ,4,0,18.,24.0,2.,24.0,0.,24.0,0.,24.0
1979-07-07 00:04:10.940 ,5,1,21.,24.0,3.,24.0,0.,24.0,0.,24.0
1979-07-07 00:04:34.940 ,5,0,43.,24.0,6.,24.0,0.,24.0,0.,24.0
1979-07-07 00:04:58.940 ,6,1,29.,24.0,1.,24.0,0.,24.0,0.,24.0
1979-07-07 00:05:22.940 ,6,0,35.,24.0,7.,24.0,0.,24.0,0.,24.0
1979-07-07 00:05:46.940 ,7,1,27.,24.0,3.,24.0,0.,24.0,0.,24.0
1979-07-07 00:06:10.940 ,7,0,30.,24.0,0.,24.0,0.,24.0,0.,24.0
1979-07-07 00:06:34.940 ,7,1,32.,24.0,0.,24.0,0.,24.0,0.,24.0
1979-07-07 00:06:58.940 ,7,0,40.,24.0,0.,24.0,0.,24.0,0.,24.0
1979-07-07 00:07:22.940 ,6,1,21.,24.0,1.,24.0,0.,24.0,0.,24.0
1979-07-07 00:07:46.940 ,6,0,29.,24.0,3.,24.0,0.,24.0,0.,24.0
1979-07-07 00:08:10.940 ,5,1,33.,24.0,4.,24.0,0.,24.0,0.,24.0
1979-07-07 00:08:34.940 ,5,0,33.,24.0,2.,24.0,0.,24.0,0.,24.0
1979-07-07 00:08:58.940 ,4,1,29.,24.0,7.,24.0,0.,24.0,0.,24.0
1979-07-07 00:09:22.940 ,4,0,21.,24.0,2.,24.0,0.,24.0,0.,24.0
1979-07-07 00:09:46.940 ,3,1,7.,24.0,4.,24.0,0.,24.0,0.,24.0
1979-07-07 00:10:10.940 ,3,0,15.,24.0,1.,24.0,0.,24.0,0.,24.0
1979-07-07 00:10:34.940 ,2,1,8.,24.0,2.,24.0,0.,24.0,0.,24.0
1979-07-07 00:10:58.940 ,2,0,6.,24.0,1.,24.0,0.,24.0,0.,24.0
1979-07-07 00:11:22.940 ,1,1,8.,24.0,1.,24.0,0.,24.0,0.,24.0
1979-07-07 00:11:46.940 ,1,0,15.,24.0,5.,24.0,0.,24.0,0.,24.0
1979-07-07 00:12:10.940 ,0,1,5.,24.0,2.,24.0,0.,24.0,0.,24.0
1979-07-07 00:12:34.940 ,0,0,13.,24.0,1.,24.0,0.,24.0,0.,24.0
1979-07-07 00:12:58.940 ,0,1,11.,24.0,1.,24.0,0.,24.0,0.,24.0
1979-07-07 00:13:22.940 ,0,0,11.,24.0,1.,24.0,0.,24.0,0.,24.0
1979-07-07 00:13:46.940 ,1,1,17.,24.0,2.,24.0,0.,24.0,0.,24.0
1979-07-07 00:14:10.940 ,1,0,13.,24.0,1.,24.0,0.,24.0,0.,24.0
1979-07-07 00:14:34.940 ,2,1,11.,24.0,2.,24.0,0.,24.0,0.,24.0
1979-07-07 00:14:58.940 ,2,0,11.,24.0,1.,24.0,0.,24.0,0.,24.0
1979-07-07 00:15:22.940 ,3,1,16.,24.0,2.,24.0,0.,24.0,0.,24.0
1979-07-07 00:15:46.940 ,3,0,11.,24.0,0.,24.0,0.,24.0,0.,24.0
1979-07-07 00:16:10.940 ,4,1,10.,24.0,2.,24.0,0.,24.0,0.,24.0
1979-07-07 00:16:34.940 ,4,0,22.,24.0,3.,24.0,0.,24.0,0.,24.0
1979-07-07 00:16:58.940 ,5,1,24.,24.0,3.,24.0,0.,24.0,0.,24.0
1979-07-07 00:17:22.940 ,5,0,21.,24.0,0.,24.0,0.,24.0,0.,24.0
1979-07-07 00:17:46.940 ,6,1,27.,24.0,0.,24.0,0.,24.0,0.,24.0
1979-07-07 00:18:10.940 ,6,0,14.,24.0,2.,24.0,0.,24.0,0.,24.0
1979-07-07 00:18:34.940 ,7,0,15.,24.0,1.,24.0,0.,24.0,0.,24.0
1979-07-07 00:18:58.940 ,7,0,32.,24.0,0.,24.0,0.,24.0,0.,24.0
1979-07-07 00:19:22.940 ,5,1,24.,24.0,1.,24.0,0.,24.0,0.,24.0
1979-07-07 00:19:46.940 ,1,1,17.,24.0,1.,24.0,0.,24.0,0.,24.0
1979-07-07 00:20:10.940 ,2,1,10.,24.0,3.,24.0,0.,24.0,0.,24.0
1979-07-07 00:20:34.940 ,6,1,16.,24.0,1.,24.0,0.,24.0,0.,24.0
1979-07-07 00:20:58.940 ,5,1,29.,24.0,0.,24.0,0.,24.0,0.,24.0
1979-07-07 00:21:22.940 ,0,0,16.,24.0,1.,24.0,0.,24.0,0.,24.0
1979-07-07 00:21:43.340 ,0,1,,0,,0,,0,,0
1979-07-07 00:21:46.940 ,2,1,6.,24.0,2.,24.0,0.,24.0,0.,24.0
1979-07-07 00:22:10.940 ,6,1,28.,24.0,2.,24.0,0.,24.0,0.,24.0
1979-07-07 00:22:34.940 ,5,1,20.,24.0,1.,24.0,0.,24.0,0.,24.0
1979-07-07 00:22:58.940 ,1,1,16.,24.0,2.,24.0,0.,24.0,0.,24.0
1979-07-07 00:23:22.940 ,2,1,11.,24.0,4.,24.0,0.,24.0,0.,24.0
1979-07-07 00:23:46.940 ,6,1,17.,24.0,1.,24.0,0.,24.0,0.,24.0
1979-07-07 00:24:10.940 ,5,1,24.,24.0,2.,24.0,0.,24.0,0.,24.0
1979-07-07 00:24:34.940 ,1,1,11.,24.0,2.,24.0,0.,24.0,0.,24.0
1979-07-07 00:24:58.940 ,2,1,7.,24.0,1.,24.0,0.,24.0,0.,24.0
1979-07-07 00:25:22.940 ,6,1,14.,24.0,2.,24.0,0.,24.0,0.,24.0
1979-07-07 00:25:46.940 ,5,1,27.,24.0,1.,24.0,0.,24.0,0.,24.0
1979-07-07 00:26:10.940 ,1,1,20.,24.0,0.,24.0,0.,24.0,0.,24.0
1979-07-07 00:26:34.940 ,2,1,7.,24.0,1.,24.0,0.,24.0,0.,24.0
1979-07-07 00:26:58.940 ,6,1,28.,24.0,2.,24.0,0.,24.0,0.,24.0
1979-07-07 00:27:22.940 ,5,1,30.,24.0,1.,24.0,0.,24.0,0.,24.0
1979-07-07 00:27:46.940 ,1,1,10.,24.0,2.,24.0,0.,24.0,0.,24.0
1979-07-07 00:28:10.940 ,2,1,11.,24.0,1.,24.0,0.,24.0,0.,24.0
1979-07-07 00:28:34.940 ,6,1,20.,24.0,5.,24.0,0.,24.0,0.,24.0
1979-07-07 00:28:58.940 ,5,1,26.,24.0,1.,24.0,0.,24.0,0.,24.0
1979-07-07 00:29:22.940 ,1,1,10.,24.0,2.,24.0,0.,24.0,0.,24.0
1979-07-07 00:29:46.940 ,0,0,15.,24.0,3.,24.0,0.,24.0,0.,24.0
1979-07-07 00:30:10.940 ,0,0,12.,24.0,3.,24.0,0.,24.0,0.,24.0
1979-07-07 00:30:34.940 ,5,1,34.,24.0,1.,24.0,0.,24.0,0.,24.0
1979-07-07 00:30:58.940 ,5,0,20.,24.0,1.,24.0,0.,24.0,0.,24.0
1979-07-07 00:31:22.940 ,4,1,29.,24.0,2.,24.0,0.,24.0,0.,24.0
1979-07-07 00:31:46.940 ,4,0,22.,24.0,3.,24.0,0.,24.0,0.,24.0
1979-07-07 00:32:10.940 ,3,1,20.,24.0,3.,24.0,0.,24.0,0.,24.0
1979-07-07 00:32:34.940 ,3,0,12.,24.0,2.,24.0,0.,24.0,0.,24.0
1979-07-07 00:32:58.940 ,2,1,11.,24.0,3.,24.0,0.,24.0,0.,24.0
1979-07-07 00:33:22.940 ,2,0,6.,24.0,2.,24.0,0.,24.0,0.,24.0
1979-07-07 00:33:46.940 ,1,1,14.,24.0,3.,24.0,0.,24.0,0.,24.0
1979-07-07 00:34:10.940 ,1,0,8.,24.0,2.,24.0,0.,24.0,0.,24.0
1979-07-07 00:34:34.940 ,0,1,9.,24.0,0.,24.0,0.,24.0,0.,24.0
1979-07-07 00:34:58.940 ,0,0,18.,24.0,3.,24.0,0.,24.0,0.,24.0
1979-07-07 00:35:22.940 ,0,1,6.,24.0,0.,24.0,0.,24.0,0.,24.0
1979-07-07 00:35:46.940 ,0,0,8.,24.0,4.,24.0,0.,24.0,0.,24.0
1979-07-07 00:36:10.940 ,1,1,11.,24.0,2.,24.0,0.,24.0,0.,24.0
1979-07-07 00:36:34.940 ,1,0,8.,24.0,0.,24.0,0.,24.0,0.,24.0
1979-07-07 00:36:58.940 ,2,1,8.,24.0,0.,24.0,0.,24.0,0.,24.0
1979-07-07 00:37:22.940 ,2,0,4.,24.0,1.,24.0,0.,24.0,0.,24.0
1979-07-07 00:37:46.940 ,3,1,11.,24.0,3.,24.0,0.,24.0,0.,24.0
1979-07-07 00:38:10.940 ,3,0,18.,24.0,3.,24.0,0.,24.0,0.,24.0
1979-07-07 00:38:34.940 ,4,1,20.,24.0,3.,24.0,0.,24.0,0.,24.0
1979-07-07 00:38:58.940 ,4,0,34.,24.0,3.,24.0,0.,24.0,0.,24.0
1979-07-07 00:39:22.940 ,5,1,34.,24.0,3.,24.0,0.,24.0,0.,24.0
1979-07-07 00:39:46.940 ,5,0,34.,24.0,6.,24.0,0.,24.0,0.,24.0
1979-07-07 00:40:10.940 ,6,1,38.,24.0,10.,24.0,0.,24.0,0.,24.0
1979-07-07 00:40:34.940 ,6,0,41.,24.0,7.,24.0,0.,24.0,0.,24.0
1979-07-07 00:40:58.940 ,7,1,39.,24.0,4.,24.0,0.,24.0,0.,24.0
1979-07-07 00:41:22.940 ,7,0,26.,24.0,0.,24.0,0.,24.0,0.,24.0
1979-07-07 00:41:46.940 ,7,1,21.,24.0,0.,24.0,0.,24.0,0.,24.0
1979-07-07 00:42:10.940 ,7,0,45.,24.0,0.,24.0,0.,24.0,0.,24.0
1979-07-07 00:42:34.940 ,6,1,34.,24.0,1.,24.0,0.,24.0,0.,24.0
1979-07-07 00:42:58.940 ,6,0,36.,24.0,3.,24.0,0.,24.0,0.,24.0
1979-07-07 00:43:22.940 ,5,1,43.,24.0,3.,24.0,0.,24.0,0.,24.0
1979-07-07 00:43:46.940 ,5,0,35.,24.0,2.,24.0,0.,24.0,0.,24.0
1979-07-07 00:44:10.940 ,4,1,26.,24.0,1.,24.0,0.,24.0,0.,24.0
1979-07-07 00:44:34.940 ,4,0,21.,24.0,3.,24.0,0.,24.0,0.,24.0
1979-07-07 00:44:58.940 ,3,1,16.,24.0,2.,24.0,0.,24.0,0.,24.0
1979-07-07 00:45:22.940 ,3,0,6.,24.0,1.,24.0,0.,24.0,0.,24.0
1979-07-07 00:45:46.940 ,2,1,10.,24.0,1.,24.0,0.,24.0,0.,24.0
1979-07-07 00:46:10.940 ,2,0,0.,24.0,1.,24.0,0.,24.0,0.,24.0
1979-07-07 00:46:34.940 ,1,1,8.,24.0,4.,24.0,0.,24.0,0.,24.0
1979-07-07 00:46:58.940 ,1,0,4.,24.0,0.,24.0,0.,24.0,0.,24.0
1979-07-07 00:47:22.940 ,0,1,12.,24.0,2.,24.0,0.,24.0,0.,24.0
1979-07-07 00:47:46.940 ,0,0,6.,24.0,0.,24.0,0.,24.0,0.,24.0
1979-07-07 00:48:10.940 ,0,1,6.,24.0,2.,24.0,0.,24.0,0.,24.0
1979-07-07 00:48:34.940 ,0,0,11.,24.0,0.,24.0,0.,24.0,0.,24.0
1979-07-07 00:48:58.940 ,1,1,11.,24.0,1.,24.0,0.,24.0,0.,24.0
1979-07-07 00:49:22.940 ,1,0,8.,24.0,1.,24.0,0.,24.0,0.,24.0
1979-07-07 00:49:46.940 ,2,1,4.,24.0,0.,24.0,0.,24.0,0.,24.0
1979-07-07 00:50:10.940 ,2,0,6.,24.0,1.,24.0,0.,24.0,0.,24.0
1979-07-07 00:50:34.940 ,3,1,12.,24.0,2.,24.0,0.,24.0,0.,24.0
1979-07-07 00:50:58.940 ,3,0,7.,24.0,0.,24.0,0.,24.0,0.,24.0
1979-07-07 00:51:22.940 ,4,1,14.,24.0,0.,24.0,0.,24.0,0.,24.0
1979-07-07 00:51:46.940 ,4,0,13.,24.0,3.,24.0,0.,24.0,0.,24.0
1979-07-07 00:52:10.940 ,5,1,36.,24.0,3.,24.0,0.,24.0,0.,24.0
1979-07-07 00:52:34.940 ,5,0,30.,24.0,4.,24.0,0.,24.0,0.,24.0
1979-07-07 00:52:58.940 ,6,1,41.,24.0,3.,24.0,0.,24.0,0.,24.0
1979-07-07 00:53:22.940 ,6,0,25.,24.0,4.,24.0,0.,24.0,0.,24.0
1979-07-07 00:53:46.940 ,7,1,25.,24.0,2.,24.0,0.,24.0,0.,24.0
1979-07-07 00:54:10.940 ,7,0,35.,24.0,0.,24.0,0.,24.0,0.,24.0
1979-07-07 00:54:34.940 ,7,1,38.,24.0,0.,24.0,0.,24.0,0.,24.0
1979-07-07 00:54:58.940 ,7,0,33.,24.0,0.,24.0,0.,24.0,0.,24.0
1979-07-07 00:55:22.940 ,6,1,17.,24.0,2.,24.0,0.,24.0,0.,24.0
1979-07-07 00:55:46.940 ,6,0,23.,24.0,3.,24.0,0.,24.0,0.,24.0
1979-07-07 00:56:10.940 ,5,1,21.,24.0,2.,24.0,0.,24.0,0.,24.0
1979-07-07 00:56:34.940 ,5,0,29.,24.0,2.,24.0,0.,24.0,0.,24.0
1979-07-07 00:56:58.940 ,4,1,31.,24.0,1.,24.0,0.,24.0,0.,24.0
1979-07-07 00:57:22.940 ,4,0,25.,24.0,2.,24.0,0.,24.0,0.,24.0
1979-07-07 00:57:46.940 ,3,1,11.,24.0,1.,24.0,0.,24.0,0.,24.0
1979-07-07 00:58:10.940 ,3,0,14.,24.0,1.,24.0,0.,24.0,0.,24.0
1979-07-07 00:58:34.940 ,2,1,6.,24.0,2.,24.0,0.,24.0,0.,24.0
1979-07-07 00:58:58.940 ,2,0,5.,24.0,1.,24.0,0.,24.0,0.,24.0
1979-07-07 00:59:22.940 ,1,1,6.,24.0,1.,24.0,0.,24.0,0.,24.0
1979-07-07 00:59:46.940 ,1,0,8.,24.0,1.,24.0,0.,24.0,0.,24.0
1979-07-07 01:00:10.940 ,0,1,11.,24.0,1.,24.0,0.,24.0,0.,24.0
1979-07-07 01:00:34.940 ,0,0,13.,24.0,4.,24.0,0.,24.0,0.,24.0
1979-07-07 01:00:58.940 ,0,1,12.,24.0,1.,24.0,0.,24.0,0.,24.0
1979-07-07 01:01:22.940 ,0,0,7.,24.0,2.,24.0,0.,24.0,0.,24.0
1979-07-07 01:01:46.940 ,1,1,9.,24.0,0.,24.0,0.,24.0,0.,24.0
1979-07-07 01:02:10.940 ,1,0,10.,24.0,0.,24.0,0.,24.0,0.,24.0
1979-07-07 01:02:34.940 ,2,1,7.,24.0,0.,24.0,0.,24.0,0.,24.0
1979-07-07 01:02:58.940 ,2,0,5.,24.0,2.,24.0,0.,24.0,0.,24.0
1979-07-07 01:03:22.940 ,3,1,7.,24.0,1.,24.0,0.,24.0,0.,24.0
1979-07-07 01:03:46.940 ,3,0,9.,24.0,0.,24.0,0.,24.0,0.,24.0
1979-07-07 01:04:10.940 ,4,1,14.,24.0,1.,24.0,0.,24.0,0.,24.0
1979-07-07 01:04:34.940 ,4,0,24.,24.0,5.,24.0,0.,24.0,0.,24.0
1979-07-07 01:04:58.940 ,5,1,22.,24.0,1.,24.0,0.,24.0,0.,24.0
1979-07-07 01:05:22.940 ,5,0,21.,24.0,5.,24.0,0.,24.0,0.,24.0
1979-07-07 01:05:46.940 ,6,1,26.,24.0,4.,24.0,0.,24.0,0.,24.0
1979-07-07 01:06:10.940 ,6,0,23.,24.0,4.,24.0,0.,24.0,0.,24.0
1979-07-07 01:06:34.940 ,7,0,23.,24.0,6.,24.0,0.,24.0,0.,24.0
1979-07-07 01:06:58.940 ,7,0,36.,24.0,0.,24.0,0.,24.0,0.,24.0
1979-07-07 01:07:22.940 ,5,1,33.,24.0,2.,24.0,0.,24.0,0.,24.0
1979-07-07 01:07:46.940 ,1,1,12.,24.0,0.,24.0,0.,24.0,0.,24.0
1979-07-07 01:08:10.940 ,2,1,5.,24.0,0.,24.0,0.,24.0,0.,24.0
1979-07-07 01:08:34.940 ,6,1,19.,24.0,3.,24.0,0.,24.0,0.,24.0
1979-07-07 01:08:58.940 ,5,1,30.,24.0,4.,24.0,0.,24.0,0.,24.0
1979-07-07 01:09:22.940 ,1,1,8.,24.0,2.,24.0,0.,24.0,0.,24.0
1979-07-07 01:09:46.940 ,2,1,10.,24.0,0.,24.0,0.,24.0,0.,24.0
1979-07-07 01:10:10.940 ,6,1,20.,24.0,2.,24.0,0.,24.0,0.,24.0
1979-07-07 01:10:34.940 ,5,1,23.,24.0,1.,24.0,0.,24.0,0.,24.0
1979-07-07 01:10:58.940 ,1,1,10.,24.0,2.,24.0,0.,24.0,0.,24.0
1979-07-07 01:11:22.940 ,2,1,8.,24.0,1.,24.0,0.,24.0,0.,24.0
1979-07-07 01:11:46.940 ,6,1,29.,24.0,1.,24.0,0.,24.0,0.,24.0
1979-07-07 01:12:10.940 ,5,1,29.,24.0,3.,24.0,0.,24.0,0.,24.0
1979-07-07 01:12:34.940 ,1,1,15.,24.0,1.,24.0,0.,24.0,0.,24.0
1979-07-07 01:12:58.940 ,2,1,8.,24.0,0.,24.0,0.,24.0,0.,24.0
1979-07-07 01:13:22.940 ,6,1,21.,24.0,0.,24.0,0.,24.0,0.,24.0
1979-07-07 01:13:46.940 ,5,1,28.,24.0,1.,24.0,0.,24.0,0.,24.0
1979-07-07 01:14:10.940 ,1,1,13.,24.0,0.,24.0,0.,24.0,0.,24.0
1979-07-07 01:14:34.940 ,2,1,6.,24.0,0.,24.0,0.,24.0,0.,24.0
1979-07-07 01:14:58.940 ,6,1,16.,24.0,1.,24.0,0.,24.0,0.,24.0
1979-07-07 01:15:22.940 ,5,1,32.,24.0,5.,24.0,0.,24.0,0.,24.0
1979-07-07 01:15:46.940 ,1,1,7.,24.0,3.,24.0,0.,24.0,0.,24.0
1979-07-07 01:16:10.940 ,2,1,5.,24.0,1.,24.0,0.,24.0,0.,24.0
1979-07-07 01:16:34.940 ,6,1,19.,24.0,3.,24.0,0.,24.0,0.,24.0
1979-07-07 01:16:58.940 ,5,1,24.,24.0,0.,24.0,0.,24.0,0.,24.0
1979-07-07 01:17:22.940 ,1,1,9.,24.0,1.,24.0,0.,24.0,0.,24.0
1979-07-07 01:17:46.940 ,0,0,4.,24.0,0.,24.0,0.,24.0,0.,24.0
1979-07-07 01:18:10.940 ,0,0,23.,24.0,6.,24.0,0.,24.0,0.,24.0
1979-07-07 01:18:34.940 ,5,1,44.,24.0,2.,24.0,0.,24.0,0.,24.0
1979-07-07 01:18:58.940 ,5,0,37.,24.0,4.,24.0,0.,24.0,0.,24.0
1979-07-07 01:19:22.940 ,4,1,21.,24.0,7.,24.0,0.,24.0,0.,24.0
1979-07-07 01:19:46.940 ,4,0,27.,24.0,1.,24.0,0.,24.0,0.,24.0
1979-07-07 01:20:10.940 ,3,1,12.,24.0,4.,24.0,0.,24.0,0.,24.0
1979-07-07 01:20:34.940 ,3,0,11.,24.0,2.,24.0,0.,24.0,0.,24.0
1979-07-07 01:20:58.940 ,2,1,8.,24.0,1.,24.0,0.,24.0,0.,24.0
1979-07-07 01:21:22.940 ,2,0,4.,24.0,1.,24.0,0.,24.0,0.,24.0
1979-07-07 01:21:46.940 ,1,1,5.,24.0,0.,24.0,0.,24.0,0.,24.0
1979-07-07 01:22:10.940 ,1,0,7.,24.0,2.,24.0,0.,24.0,0.,24.0
1979-07-07 01:22:34.940 ,0,1,7.,24.0,2.,24.0,0.,24.0,0.,24.0
1979-07-07 01:22:58.940 ,0,0,5.,24.0,1.,24.0,0.,24.0,0.,24.0
1979-07-07 01:23:22.940 ,0,1,7.,24.0,0.,24.0,0.,24.0,0.,24.0
1979-07-07 01:23:46.940 ,0,0,10.,24.0,1.,24.0,0.,24.0,0.,24.0
1979-07-07 01:24:12.140 ,1,1,7.,24.0,1.,24.0,0.,24.0,0.,24.0
1979-07-07 01:24:34.940 ,1,0,4.,24.0,1.,24.0,0.,24.0,0.,24.0
1979-07-07 01:24:58.940 ,2,1,7.,24.0,0.,24.0,0.,24.0,0.,24.0
1979-07-07 01:25:22.940 ,2,0,1.,24.0,0.,24.0,0.,24.0,0.,24.0
1979-07-07 01:25:46.940 ,3,1,5.,24.0,1.,24.0,0.,24.0,0.,24.0
1979-07-07 01:26:10.940 ,3,0,15.,24.0,1.,24.0,0.,24.0,0.,24.0
1979-07-07 01:26:34.940 ,4,1,5.,24.0,0.,24.0,0.,24.0,0.,24.0
1979-07-07 01:26:58.940 ,4,0,9.,24.0,0.,24.0,0.,24.0,0.,24.0
1979-07-07 01:27:22.940 ,5,1,12.,24.0,1.,24.0,0.,24.0,0.,24.0
1979-07-07 01:27:46.940 ,5,0,14.,24.0,0.,24.0,0.,24.0,0.,24.0
1979-07-07 01:28:10.940 ,6,1,18.,24.0,3.,24.0,0.,24.0,0.,24.0
1979-07-07 01:28:34.940 ,6,0,21.,24.0,4.,24.0,0.,24.0,0.,24.0
1979-07-07 01:28:58.940 ,7,1,23.,24.0,5.,24.0,0.,24.0,0.,24.0
1979-07-07 01:29:22.940 ,7,0,39.,24.0,0.,24.0,0.,24.0,0.,24.0
1979-07-07 01:29:46.940 ,7,1,36.,24.0,0.,24.0,0.,24.0,0.,24.0
1979-07-07 01:30:10.940 ,7,0,32.,24.0,0.,24.0,0.,24.0,0.,24.0
1979-07-07 01:30:34.940 ,6,1,32.,24.0,3.,24.0,0.,24.0,0.,24.0
1979-07-07 01:30:58.940 ,6,0,19.,24.0,2.,24.0,0.,24.0,0.,24.0
1979-07-07 01:31:22.940 ,5,1,24.,24.0,3.,24.0,0.,24.0,0.,24.0
1979-07-07 01:31:46.940 ,5,0,23.,24.0,2.,24.0,0.,24.0,0.,24.0
1979-07-07 01:32:10.940 ,4,1,18.,24.0,3.,24.0,0.,24.0,0.,24.0
1979-07-07 01:32:34.940 ,4,0,13.,24.0,2.,24.0,0.,24.0,0.,24.0
1979-07-07 01:32:58.940 ,3,1,10.,24.0,0.,24.0,0.,24.0,0.,24.0
1979-07-07 01:33:22.940 ,3,0,6.,24.0,0.,24.0,0.,24.0,0.,24.0
1979-07-07 01:33:46.940 ,2,1,7.,24.0,0.,24.0,0.,24.0,0.,24.0
1979-07-07 01:34:10.940 ,2,0,3.,24.0,0.,24.0,0.,24.0,0.,24.0
1979-07-07 01:34:34.940 ,1,1,6.,24.0,0.,24.0,0.,24.0,0.,24.0
1979-07-07 01:34:58.940 ,1,0,2.,24.0,0.,24.0,0.,24.0,0.,24.0
1979-07-07 01:35:22.940 ,0,1,3.,24.0,0.,24.0,0.,24.0,0.,24.0
1979-07-07 01:35:46.940 ,0,0,3.,24.0,0.,24.0,0.,24.0,0.,24.0
1979-07-07 01:36:10.940 ,0,1,4.,24.0,1.,24.0,0.,24.0,0.,24.0
1979-07-07 01:36:34.940 ,0,0,4.,24.0,0.,24.0,0.,24.0,0.,24.0
1979-07-07 01:36:58.940 ,1,1,3.,24.0,2.,24.0,0.,24.0,0.,24.0
1979-07-07 01:37:22.940 ,0,0,0.,24.0,2.,24.0,0.,24.0,0.,24.0
1979-07-07 01:37:51.140 ,0,0,1.,24.0,0.,24.0,0.,24.0,0.,24.0
1979-07-07 01:38:10.940 ,0,0,3.,24.0,0.,24.0,0.,24.0,0.,24.0
1979-07-07 01:38:34.940 ,3,1,3.,24.0,0.,24.0,0.,24.0,0.,24.0
1979-07-07 01:38:58.940 ,3,0,8.,24.0,1.,24.0,0.,24.0,0.,24.0
1979-07-07 01:39:22.940 ,4,1,15.,24.0,0.,24.0,0.,24.0,0.,24.0
1979-07-07 01:39:46.940 ,4,0,14.,24.0,1.,24.0,0.,24.0,0.,24.0
1979-07-07 01:40:10.940 ,5,1,11.,24.0,1.,24.0,0.,24.0,0.,24.0
1979-07-07 01:40:34.940 ,5,0,11.,24.0,2.,24.0,0.,24.0,0.,24.0
1979-07-07 01:40:58.940 ,6,1,12.,24.0,2.,24.0,0.,24.0,0.,24.0
1979-07-07 01:41:22.940 ,6,0,13.,24.0,5.,24.0,0.,24.0,0.,24.0
1979-07-07 01:41:46.940 ,7,1,11.,24.0,1.,24.0,0.,24.0,0.,24.0
1979-07-07 01:42:10.940 ,7,0,34.,24.0,0.,24.0,0.,24.0,0.,24.0
1979-07-07 01:42:34.940 ,7,1,32.,24.0,0.,24.0,0.,24.0,0.,24.0
1979-07-07 01:42:58.940 ,7,0,40.,24.0,0.,24.0,0.,24.0,0.,24.0
1979-07-07 01:43:22.940 ,6,1,26.,24.0,0.,24.0,0.,24.0,0.,24.0
1979-07-07 01:43:46.940 ,6,0,13.,24.0,3.,24.0,0.,24.0,0.,24.0
1979-07-07 01:44:10.940 ,5,1,14.,24.0,2.,24.0,0.,24.0,0.,24.0
1979-07-07 01:44:34.940 ,5,0,8.,24.0,1.,24.0,0.,24.0,0.,24.0
1979-07-07 01:44:58.940 ,4,1,8.,24.0,0.,24.0,0.,24.0,0.,24.0
1979-07-07 01:45:22.940 ,4,0,5.,24.0,0.,24.0,0.,24.0,0.,24.0
1979-07-07 01:45:46.940 ,3,1,7.,24.0,0.,24.0,0.,24.0,0.,24.0
1979-07-07 01:46:10.940 ,3,0,6.,24.0,1.,24.0,0.,24.0,0.,24.0
1979-07-07 01:46:34.940 ,2,1,2.,24.0,0.,24.0,0.,24.0,0.,24.0
1979-07-07 01:46:58.940 ,2,0,1.,24.0,1.,24.0,0.,24.0,0.,24.0
1979-07-07 01:47:22.940 ,1,1,4.,24.0,0.,24.0,0.,24.0,0.,24.0
1979-07-07 01:47:46.940 ,1,0,4.,24.0,1.,24.0,0.,24.0,0.,24.0
1979-07-07 01:48:10.940 ,0,1,3.,24.0,2.,24.0,0.,24.0,0.,24.0
1979-07-07 01:48:34.940 ,0,0,6.,24.0,2.,24.0,0.,24.0,0.,24.0
1979-07-07 01:48:58.940 ,0,1,5.,24.0,0.,24.0,0.,24.0,0.,24.0
1979-07-07 01:49:22.940 ,0,0,6.,24.0,1.,24.0,0.,24.0,0.,24.0
1979-07-07 01:49:46.940 ,1,1,4.,24.0,0.,24.0,0.,24.0,0.,24.0
1979-07-07 01:50:10.940 ,1,0,1.,24.0,0.,24.0,0.,24.0,0.,24.0
1979-07-07 01:50:34.940 ,2,1,4.,24.0,2.,24.0,0.,24.0,0.,24.0
1979-07-07 01:50:58.940 ,2,0,6.,24.0,3.,24.0,0.,24.0,0.,24.0
1979-07-07 01:51:22.940 ,3,1,2.,24.0,2.,24.0,0.,24.0,0.,24.0
1979-07-07 01:51:46.940 ,3,0,4.,24.0,0.,24.0,0.,24.0,0.,24.0
1979-07-07 01:52:10.940 ,4,1,6.,24.0,1.,24.0,0.,24.0,0.,24.0
1979-07-07 01:52:34.940 ,4,0,6.,24.0,2.,24.0,0.,24.0,0.,24.0
1979-07-07 01:52:58.940 ,5,1,7.,24.0,1.,24.0,0.,24.0,0.,24.0
1979-07-07 01:53:22.940 ,5,0,5.,24.0,0.,24.0,0.,24.0,0.,24.0
1979-07-07 01:53:46.940 ,6,1,6.,24.0,0.,24.0,0.,24.0,0.,24.0
1979-07-07 01:54:10.940 ,6,0,9.,24.0,1.,24.0,0.,24.0,0.,24.0
1979-07-07 01:54:34.940 ,7,0,17.,24.0,0.,24.0,0.,24.0,0.,24.0
1979-07-07 01:54:58.940 ,7,0,39.,24.0,0.,24.0,0.,24.0,0.,24.0
1979-07-07 01:55:22.940 ,5,1,23.,24.0,1.,24.0,0.,24.0,0.,24.0
1979-07-07 01:55:46.940 ,1,1,8.,24.0,2.,24.0,0.,24.0,0.,24.0
1979-07-07 01:56:10.940 ,2,1,5.,24.0,0.,24.0,0.,24.0,0.,24.0
1979-07-07 01:56:34.940 ,6,1,10.,24.0,1.,24.0,0.,24.0,0.,24.0
1979-07-07 01:56:58.940 ,5,1,21.,24.0,0.,24.0,0.,24.0,0.,24.0
1979-07-07 01:57:22.940 ,1,1,4.,24.0,1.,24.0,0.,24.0,0.,24.0
1979-07-07 01:57:46.940 ,2,1,6.,24.0,0.,24.0,0.,24.0,0.,24.0
1979-07-07 01:58:10.940 ,6,1,6.,24.0,2.,24.0,0.,24.0,0.,24.0
1979-07-07 01:58:34.940 ,5,1,29.,24.0,1.,24.0,0.,24.0,0.,24.0
1979-07-07 01:58:58.940 ,1,1,8.,24.0,1.,24.0,0.,24.0,0.,24.0
1979-07-07 01:59:22.940 ,2,1,2.,24.0,3.,24.0,0.,24.0,0.,24.0
1979-07-07 01:59:46.940 ,6,1,6.,24.0,0.,24.0,0.,24.0,0.,24.0
1979-07-07 02:00:10.940 ,5,1,18.,24.0,0.,24.0,0.,24.0,0.,24.0
1979-07-07 02:00:34.940 ,1,1,2.,24.0,1.,24.0,0.,24.0,0.,24.0
1979-07-07 02:00:58.940 ,2,1,1.,24.0,0.,24.0,0.,24.0,0.,24.0
1979-07-07 02:01:22.940 ,6,1,10.,24.0,0.,24.0,0.,24.0,0.,24.0
1979-07-07 02:01:46.940 ,5,1,21.,24.0,0.,24.0,0.,24.0,0.,24.0
1979-07-07 02:02:10.940 ,1,1,7.,24.0,1.,24.0,0.,24.0,0.,24.0
1979-07-07 02:02:34.940 ,2,1,6.,24.0,0.,24.0,0.,24.0,0.,24.0
1979-07-07 02:02:58.940 ,6,1,7.,24.0,4.,24.0,0.,24.0,0.,24.0
1979-07-07 02:03:22.940 ,5,1,16.,24.0,0.,24.0,0.,24.0,0.,24.0
1979-07-07 02:03:46.940 ,1,1,2.,24.0,0.,24.0,0.,24.0,0.,24.0
1979-07-07 02:04:10.940 ,2,1,5.,24.0,2.,24.0,0.,24.0,0.,24.0
1979-07-07 02:04:34.940 ,6,1,6.,24.0,2.,24.0,0.,24.0,0.,24.0
1979-07-07 02:04:58.940 ,5,1,26.,24.0,2.,24.0,0.,24.0,0.,24.0
1979-07-07 02:05:22.940 ,1,1,5.,24.0,0.,24.0,0.,24.0,0.,24.0
1979-07-07 02:05:46.940 ,0,0,4.,24.0,1.,24.0,0.,24.0,0.,24.0
1979-07-07 02:06:10.940 ,0,0,9.,24.0,1.,24.0,0.,24.0,0.,24.0
1979-07-07 02:06:34.940 ,5,1,16.,24.0,0.,24.0,0.,24.0,0.,24.0
1979-07-07 02:06:58.940 ,5,0,9.,24.0,3.,24.0,0.,24.0,0.,24.0
1979-07-07 02:07:22.940 ,4,1,7.,24.0,1.,24.0,0.,24.0,0.,24.0
1979-07-07 02:07:46.940 ,4,0,7.,24.0,0.,24.0,0.,24.0,0.,24.0
1979-07-07 02:08:10.940 ,3,1,8.,24.0,3.,24.0,0.,24.0,0.,24.0
1979-07-07 02:08:34.940 ,3,0,7.,24.0,0.,24.0,0.,24.0,0.,24.0
1979-07-07 02:08:58.940 ,2,1,3.,24.0,0.,24.0,0.,24.0,0.,24.0
1979-07-07 02:09:22.940 ,2,0,2.,24.0,1.,24.0,0.,24.0,0.,24.0
1979-07-07 02:09:46.940 ,1,1,2.,24.0,0.,24.0,0.,24.0,0.,24.0
1979-07-07 02:10:10.940 ,1,0,2.,24.0,1.,24.0,0.,24.0,0.,24.0
1979-07-07 02:10:34.940 ,0,1,3.,24.0,0.,24.0,0.,24.0,0.,24.0
1979-07-07 02:10:58.940 ,0,0,2.,24.0,1.,24.0,0.,24.0,0.,24.0
1979-07-07 02:11:22.940 ,0,1,7.,24.0,0.,24.0,0.,24.0,0.,24.0
1979-07-07 02:11:46.940 ,0,0,5.,24.0,0.,24.0,0.,24.0,0.,24.0
1979-07-07 02:12:10.940 ,1,1,2.,24.0,0.,24.0,0.,24.0,0.,24.0
1979-07-07 02:12:34.940 ,1,0,3.,24.0,0.,24.0,0.,24.0,0.,24.0
1979-07-07 02:12:58.940 ,2,1,5.,24.0,1.,24.0,0.,24.0,0.,24.0
1979-07-07 02:13:22.940 ,2,0,7.,24.0,1.,24.0,0.,24.0,0.,24.0
1979-07-07 02:13:46.940 ,3,1,11.,24.0,3.,24.0,0.,24.0,0.,24.0
1979-07-07 02:14:10.940 ,3,0,10.,24.0,4.,24.0,0.,24.0,0.,24.0
1979-07-07 02:14:34.940 ,4,1,13.,24.0,2.,24.0,0.,24.0,0.,24.0
1979-07-07 02:14:58.940 ,4,0,10.,24.0,2.,24.0,0.,24.0,0.,24.0
1979-07-07 02:15:22.940 ,5,1,12.,24.0,2.,24.0,0.,24.0,0.,24.0
1979-07-07 02:15:46.940 ,5,0,8.,24.0,0.,24.0,0.,24.0,0.,24.0
1979-07-07 02:16:10.940 ,6,1,9.,24.0,1.,24.0,0.,24.0,0.,24.0
1979-07-07 02:16:34.940 ,6,0,14.,24.0,0.,24.0,0.,24.0,0.,24.0
1979-07-07 02:16:58.940 ,7,1,8.,24.0,3.,24.0,0.,24.0,0.,24.0
1979-07-07 02:17:22.940 ,7,0,22.,24.0,0.,24.0,0.,24.0,0.,24.0
1979-07-07 02:17:46.940 ,7,1,33.,24.0,0.,24.0,0.,24.0,0.,24.0
1979-07-07 02:18:10.940 ,7,0,32.,24.0,0.,24.0,0.,24.0,0.,24.0
1979-07-07 02:18:34.940 ,6,1,23.,24.0,0.,24.0,0.,24.0,0.,24.0
1979-07-07 02:18:58.940 ,6,0,10.,24.0,0.,24.0,0.,24.0,0.,24.0
1979-07-07 02:19:22.940 ,5,1,13.,24.0,0.,24.0,0.,24.0,0.,24.0
1979-07-07 02:19:46.940 ,5,0,6.,24.0,1.,24.0,0.,24.0,0.,24.0
1979-07-07 02:20:10.940 ,4,1,10.,24.0,0.,24.0,0.,24.0,0.,24.0
1979-07-07 02:20:34.940 ,4,0,11.,24.0,3.,24.0,0.,24.0,0.,24.0
1979-07-07 02:20:58.940 ,3,1,10.,24.0,4.,24.0,0.,24.0,0.,24.0
1979-07-07 02:21:22.940 ,3,0,13.,24.0,3.,24.0,0.,24.0,0.,24.0
1979-07-07 02:21:46.940 ,2,1,13.,24.0,3.,24.0,0.,24.0,0.,24.0
1979-07-07 02:22:10.940 ,2,0,11.,24.0,2.,24.0,0.,24.0,0.,24.0
1979-07-07 02:22:34.940 ,1,1,7.,24.0,0.,24.0,0.,24.0,0.,24.0
1979-07-07 02:22:58.940 ,1,0,10.,24.0,0.,24.0,0.,24.0,0.,24.0
1979-07-07 02:23:22.940 ,0,1,4.,24.0,2.,24.0,0.,24.0,0.,24.0
1979-07-07 02:23:46.940 ,0,0,4.,24.0,2.,24.0,0.,24.0,0.,24.0
1979-07-07 02:24:10.940 ,0,1,5.,24.0,1.,24.0,0.,24.0,0.,24.0
1979-07-07 02:24:34.940 ,0,0,3.,24.0,1.,24.0,0.,24.0,0.,24.0
1979-07-07 02:24:58.940 ,1,1,5.,24.0,2.,24.0,0.,24.0,0.,24.0
1979-07-07 02:25:22.940 ,1,0,0.,24.0,0.,24.0,0.,24.0,0.,24.0
1979-07-07 02:25:46.940 ,2,1,4.,24.0,1.,24.0,0.,24.0,0.,24.0
1979-07-07 02:26:10.940 ,2,0,3.,24.0,2.,24.0,0.,24.0,0.,24.0
1979-07-07 02:26:34.940 ,3,1,7.,24.0,1.,24.0,0.,24.0,0.,24.0
1979-07-07 02:26:58.940 ,3,0,3.,24.0,1.,24.0,0.,24.0,0.,24.0
1979-07-07 02:27:22.940 ,4,1,3.,24.0,0.,24.0,0.,24.0,0.,24.0
1979-07-07 02:27:46.940 ,4,0,10.,24.0,1.,24.0,0.,24.0,0.,24.0
1979-07-07 02:28:10.940 ,5,1,12.,24.0,0.,24.0,0.,24.0,0.,24.0
1979-07-07 02:28:34.940 ,5,0,10.,24.0,3.,24.0,0.,24.0,0.,24.0
1979-07-07 02:28:58.940 ,6,1,8.,24.0,1.,24.0,0.,24.0,0.,24.0
1979-07-07 02:29:22.940 ,6,0,9.,24.0,2.,24.0,0.,24.0,0.,24.0
1979-07-07 02:29:46.940 ,7,1,10.,24.0,4.,24.0,0.,24.0,0.,24.0
1979-07-07 02:30:10.940 ,7,0,28.,24.0,0.,24.0,0.,24.0,0.,24.0
1979-07-07 02:30:34.940 ,7,1,30.,24.0,0.,24.0,0.,24.0,0.,24.0
1979-07-07 02:30:58.940 ,7,0,25.,24.0,1.,24.0,0.,24.0,0.,24.0
1979-07-07 02:31:22.940 ,6,1,22.,24.0,1.,24.0,0.,24.0,0.,24.0
1979-07-07 02:31:46.940 ,6,0,15.,24.0,0.,24.0,0.,24.0,0.,24.0
1979-07-07 02:32:10.940 ,5,1,11.,24.0,0.,24.0,0.,24.0,0.,24.0
1979-07-07 02:32:34.940 ,5,0,10.,24.0,5.,24.0,0.,24.0,0.,24.0